User: anonymous   Login
Location: Newark
(45.6000°N, 12.8833°E)
Time: 03:59:07
(UTC+00:00)
Language:

Tiros 1 - Orbit

View from above orbital plane
View from above orbital plane
View from above satellite
View from above satellite

Ground track
Ground track

The orbit data is extracted from the following two-line orbital elements,

1    29U 60002B   19322.88166963 -.00000124 +00000-0 +12586-4 0  9997
2    29 048.3793 227.0700 0023792 046.2359 314.0517 14.74328879187322
Epoch (UTC): 18 November 2019 21:09:36
Eccentricity: 0.0023792
inclination: 48.3793°
perigee height: 630 km
apogee height: 664 km
right ascension of ascending node: 227.0700°
argument of perigee: 46.2359°
revolutions per day: 14.74328879
mean anomaly at epoch: 314.0517°
orbit number at epoch: 18732

The dashed part of the orbit path shows where the satellite is in the earth's shadow,  

DLR